This is the latest recevied weather packets stored in our database for station/object DL4JCP-6. If no packets are shown the sender has not sent any weather packets the latest 10 day(s).
| Time | Temp. | Humidity | Pressure | Rain* | Wind** | Luminosity | Snow |
|---|---|---|---|---|---|---|---|
| 1777661521 | 12.22° C | 65% | 1028.3 hPa | 0 mm | - | - | - |
| 1777661297 | 12.78° C | 65% | 1028.2 hPa | 0 mm | - | - | - |
| 1777661221 | 12.78° C | 65% | 1028.2 hPa | 0 mm | - | - | - |
| 1777660921 | 12.78° C | 64% | 1028.2 hPa | 0 mm | - | - | - |
| 1777660623 | 13.33° C | 63% | 1028.4 hPa | 0 mm | - | - | - |
| 1777660398 | 13.89° C | 61% | 1028.4 hPa | 0 mm | - | - | - |
| 1777660323 | 13.89° C | 61% | 1028.4 hPa | 0 mm | - | - | - |
| 1777660022 | 14.44° C | 58% | 1028.4 hPa | 0 mm | - | - | - |
| 1777659722 | 15° C | 55% | 1028.3 hPa | 0 mm | - | - | - |
| 1777659497 | 15.56° C | 55% | 1028.3 hPa | 0 mm | - | - | - |
| 1777659422 | 15.56° C | 55% | 1028.3 hPa | 0 mm | - | - | - |
| 1777659122 | 15.56° C | 54% | 1028.2 hPa | 0 mm | - | - | - |
| 1777658821 | 15.56° C | 53% | 1028.2 hPa | 0 mm | - | - | - |
| 1777658597 | 16.11° C | 53% | 1028.2 hPa | 0 mm | - | - | - |
| 1777658521 | 16.11° C | 53% | 1028.2 hPa | 0 mm | - | - | - |
| 1777658221 | 16.11° C | 52% | 1028.1 hPa | 0 mm | - | - | - |
| 1777657697 | 16.67° C | 51% | 1027.9 hPa | 0 mm | - | - | - |
| 1777656800 | 16.67° C | 51% | 1027.9 hPa | 0 mm | - | - | - |
| 1777655897 | 17.22° C | 49% | 1027.5 hPa | 0 mm | - | - | - |
| 1777654996 | 17.78° C | 48% | 1027.3 hPa | 0 mm | - | - | - |
| 1777654097 | 18.33° C | 47% | 1027.3 hPa | 0 mm | - | - | - |
| 1777653199 | 18.89° C | 46% | 1027.4 hPa | 0 mm | - | - | - |
| 1777652822 | 18.89° C | 48% | 1027.4 hPa | 0 mm | - | - | - |
| 1777652522 | 18.89° C | 46% | 1027.4 hPa | 0 mm | - | - | - |
| 1777652297 | 19.44° C | 45% | 1027.5 hPa | 0 mm | - | - | - |
* Rain latest hour (hover to see other rain measurements)
** Current wind speed in m/s (hover to see current wind gust speed)